Weather History for KSTJ - May, 2014

Change the Weather History Date:

Thursday, May 29, 2014

  Actual Average Record
Temperature  
Mean Temperature 75 °F 69 °F  
Max Temperature 87 °F 80 °F 98 °F (1934)
Min Temperature 63 °F 58 °F 35 °F (1947)
Degree Days  
Heating Degree Days 0 1  
Month to date heating degree days 122 110  
Since 1 July heating degree days 6269 5448  
Cooling Degree Days 10 5  
Month to date cooling degree days 130 80  
Year to date cooling degree days 138 101  
Growing Degree Days 25 (Base 50)    
Moisture  
Dew Point 65 °F    
Average Humidity 71    
Maximum Humidity 93    
Minimum Humidity 48    
Precipitation  
Precipitation 0.01 in 0.17 in 2.56 in (1994)
Month to date precipitation 2.54 5.08  
Year to date precipitation 7.75 12.61  
Sea Level Pressure  
Sea Level Pressure 29.95 in    
Wind  
Wind Speed 6 mph (ENE)    
Max Wind Speed 14 mph    
Max Gust Speed 17 mph    
Visibility 10 miles    
Events Thunderstorm    
T = Trace of Precipitation, MM = Missing Value Source: NWS Daily Summary

Daily Weather History Graph

Daily Weather History Graph

Search for Another Location

Airport or City:

Trip Planner

Search our weather history database for the weather conditions in past years. The results will help you decide how hot, cold, wet, or windy it might be!

Date:

Astronomy

May. 29, 2014 Rise Set
Actual Time 5:54 AM CDT 8:39 PM CDT
Civil Twilight 5:23 AM CDT 9:11 PM CDT
Nautical Twilight 4:43 AM CDT 9:51 PM CDT
Astronomical Twilight 3:58 AM CDT 10:36 PM CDT
Moon 6:49 AM CDT (5/29) 9:30 PM CDT (5/29)
Length of Visible Light 15h 48m
Length of Day
14h 44m
New Moon, 1% of the Moon is Illuminated
May 29
New Moon
Jun 5
First Quarter
Jun 12
Full
Jun 19
Last Quarter
Jun 27
New

Hourly Weather History & Observations

Time (CDT) Temp. Heat Index Dew Point Humidity Pressure Visibility Wind Dir Wind Speed Gust Speed Precip Events Conditions
1:53 AM 66.0 °F - 63.0 °F 90% 29.94 in 10.0 mi North 4.6 mph - N/A   Clear
3:53 AM 64.0 °F - 62.1 °F 93% 29.94 in 10.0 mi North 3.5 mph - N/A   Clear
4:53 AM 64.0 °F - 62.1 °F 93% 29.95 in 9.0 mi NE 4.6 mph - N/A   Clear
5:53 AM 64.0 °F - 62.1 °F 93% 29.96 in 9.0 mi NNW 3.5 mph - N/A   Clear
6:53 AM 66.9 °F - 63.0 °F 87% 29.97 in 9.0 mi North 5.8 mph - N/A   Clear
7:53 AM 69.1 °F - 64.0 °F 84% 29.97 in 10.0 mi NNE 5.8 mph - N/A   Clear
8:53 AM 73.0 °F - 64.9 °F 76% 29.98 in 10.0 mi NE 4.6 mph - N/A   Clear
9:53 AM 75.9 °F - 66.0 °F 71% 29.98 in 10.0 mi NE 5.8 mph - N/A   Clear
10:53 AM 79.0 °F - 66.0 °F 64% 29.99 in 10.0 mi Variable 4.6 mph - N/A   Clear
11:53 AM 80.1 °F 82.1 °F 66.0 °F 62% 29.98 in 10.0 mi ENE 8.1 mph - N/A   Partly Cloudy
12:53 PM 82.0 °F 84.1 °F 66.0 °F 58% 29.97 in 10.0 mi ENE 6.9 mph - N/A   Scattered Clouds
1:53 PM 82.9 °F 85.0 °F 66.0 °F 56% 29.96 in 10.0 mi NE 11.5 mph - N/A   Mostly Cloudy
2:53 PM 84.9 °F 87.1 °F 66.0 °F 53% 29.94 in 10.0 mi NE 8.1 mph 16.1 mph N/A   Clear
3:53 PM 86.0 °F 87.6 °F 64.9 °F 49% 29.92 in 10.0 mi ENE 8.1 mph - N/A   Partly Cloudy
5:13 PM 84.9 °F 86.1 °F 64.0 °F 49% 29.92 in 10.0 mi NNE 6.9 mph - N/A   Mostly Cloudy
5:20 PM 84.0 °F 85.8 °F 64.9 °F 53% 29.93 in 10.0 mi SE 10.4 mph - N/A Thunderstorm Mostly Cloudy
5:38 PM 78.1 °F - 66.9 °F 68% 29.93 in 10.0 mi South 10.4 mph - N/A   Overcast
5:53 PM 79.0 °F - 68.0 °F 69% 29.92 in 10.0 mi South 5.8 mph - N/A   Overcast
6:53 PM 80.1 °F 82.1 °F 66.0 °F 62% 29.91 in 10.0 mi SSE 3.5 mph - N/A   Mostly Cloudy
7:53 PM 79.0 °F - 66.9 °F 66% 29.93 in 10.0 mi NNE 8.1 mph - N/A   Partly Cloudy
8:53 PM 77.0 °F - 64.9 °F 66% 29.94 in 10.0 mi SE 10.4 mph - N/A   Scattered Clouds
9:53 PM 75.0 °F - 64.9 °F 71% 29.96 in 10.0 mi Calm Calm - N/A   Partly Cloudy
10:53 PM 73.9 °F - 64.9 °F 73% 29.97 in 10.0 mi East 5.8 mph - N/A   Clear
11:53 PM 73.0 °F - 66.9 °F 81% 29.97 in 10.0 mi East 5.8 mph - 0.01 in   Mostly Cloudy